Weather History for Vancouver, BC

Change the Weather History Date:

Tuesday, November 6, 2012

  Actual Average Record
Temperature  
Mean Temperature 49 °F -  
Max Temperature 53 °F 49 °F 60 °F (2006)
Min Temperature 45 °F 39 °F 24 °F (2003)
Degree Days  
Heating Degree Days 16    
Moisture  
Dew Point 46 °F    
Average Humidity 88    
Maximum Humidity 94    
Minimum Humidity 69    
Precipitation  
Precipitation 0.12 in - - ()
Sea Level Pressure  
Sea Level Pressure 30.00 in    
Wind  
Wind Speed 6 mph ()    
Max Wind Speed 18 mph    
Max Gust Speed 28 mph    
Visibility 11.1 miles    
Events Rain    
Averages and records for this station are not official NWS values.
T = Trace of Precipitation, MM = Missing Value Source: Averaged Metar Reports

Daily Weather History Graph

Daily Weather History Graph

Search for Another Location

Airport:

Trip Planner

Search our weather history database for the weather conditions in past years. The results will help you decide how hot, cold, wet, or windy it might be!

Date:

Astronomy

Nov. 06, 2012 Rise Set
Actual Time 7:09 AM PST 4:42 PM PST
Civil Twilight 6:35 AM PST 5:16 PM PST
Nautical Twilight 5:57 AM PST 5:54 PM PST
Astronomical Twilight 5:20 AM PST 6:31 PM PST
Moon 11:34 PM PST (11/6) 12:59 PM PST (11/6)
Length of Visible Light 10h 41m
Length of Day
9h 33m
Waning Gibbous, 52% of the Moon is Illuminated
Nov 6
Waning Gibbous
Nov 6
Last Quarter
Nov 13
New
Nov 20
First Quarter
Nov 28
Full

Hourly Weather History & Observations

Time (PST) Temp. Dew Point Humidity Pressure Visibility Wind Dir Wind Speed Gust Speed Precip Events Conditions
12:00 AM 48.2 °F 44.6 °F 87% 30.20 in 12.0 mi NW 6.9 mph - N/A   Overcast
1:00 AM 48.2 °F 46.4 °F 93% 30.19 in 12.0 mi NW 3.5 mph - N/A   Overcast
2:00 AM 48.2 °F 46.4 °F 93% 30.16 in 12.0 mi Calm Calm - N/A   Overcast
3:00 AM 48.2 °F 46.4 °F 93% 30.13 in 12.0 mi Calm Calm - N/A   Overcast
3:42 AM 48.2 °F - N/A% - 10.0 mi Calm Calm - N/A Rain Light Rain Showers
4:00 AM 49 °F 47 °F 88% 30.10 in 12 mi Calm Calm - - Rain Light Rain Showers
4:00 AM 48.2 °F 46.4 °F 93% 30.10 in 12.0 mi Calm Calm - N/A Rain Light Rain Showers
5:00 AM 48.2 °F 46.4 °F 93% 30.09 in 12.0 mi NNE 3.5 mph - N/A Rain Light Rain Showers
6:00 AM 48.2 °F 46.4 °F 93% 30.07 in 12.0 mi Calm Calm - N/A   Overcast
6:16 AM 48.2 °F - N/A% - 12.0 mi NW 6.9 mph - N/A Rain Light Rain Showers
7:00 AM 48.2 °F 46.4 °F 93% 30.06 in 12.0 mi Calm Calm - N/A Rain Light Rain Showers
8:00 AM 48.2 °F 46.4 °F 93% 30.06 in 8.0 mi Calm Calm - N/A Rain Light Rain Showers
9:00 AM 50.0 °F 46.4 °F 87% 30.02 in 10.0 mi North 5.8 mph - N/A Rain Light Rain Showers
9:51 AM 50.0 °F - N/A% - 3.0 mi NW 5.8 mph - N/A Rain Light Rain Showers
10:00 AM 49 °F 47 °F 90% 30.02 in 4 mi NW 4.6 mph - - Rain Light Rain Showers
10:00 AM 48.2 °F 46.4 °F 93% 30.02 in 4.0 mi NNW 4.6 mph - N/A Rain Light Rain Showers
11:00 AM 48.2 °F 46.4 °F 93% 29.99 in 6.0 mi ENE 6.9 mph - N/A Rain Light Rain
11:14 AM 48.2 °F - N/A% - 12.0 mi ESE 4.6 mph - N/A   Overcast
11:37 AM 48.2 °F - N/A% - 6.0 mi ESE 4.6 mph - N/A Rain Light Rain
12:00 PM 48.2 °F 46.4 °F 93% 29.96 in 8.0 mi East 9.2 mph - N/A Rain Light Rain
12:15 PM 48.2 °F - N/A% - 12.0 mi ESE 8.1 mph - N/A   Overcast
1:00 PM 48.2 °F 46.4 °F 93% 29.94 in 12.0 mi East 9.2 mph - N/A   Overcast
2:00 PM 48.2 °F 46.4 °F 93% 29.94 in 12.0 mi East 11.5 mph - N/A   Overcast
3:00 PM 48.2 °F 46.4 °F 93% 29.92 in 12.0 mi ESE 15.0 mph - N/A   Overcast
4:00 PM 50 °F 47 °F 85% 29.90 in 12 mi ESE 16.1 mph - -   Partly Cloudy
4:00 PM 50.0 °F 46.4 °F 87% 29.90 in 12.0 mi ESE 17.3 mph - N/A   Mostly Cloudy
5:00 PM 50.0 °F 46.4 °F 87% 29.89 in 12.0 mi ESE 15.0 mph - N/A   Overcast
6:00 PM 50.0 °F 48.2 °F 94% 29.88 in 12.0 mi ESE 13.8 mph - N/A   Overcast
7:00 PM 50.0 °F 46.4 °F 87% 29.88 in 15.0 mi SE 16.1 mph - N/A   Partly Cloudy
8:00 PM 51.8 °F 46.4 °F 82% 29.89 in 15.0 mi South 18.4 mph 25.3 mph N/A   Partly Cloudy
9:00 PM 51.8 °F 46.4 °F 82% 29.92 in 15.0 mi South 16.1 mph 27.6 mph N/A   Partly Cloudy
9:52 PM 51.8 °F - N/A% - 12.0 mi SW 15.0 mph 23.0 mph N/A Rain Light Rain
10:00 PM 52 °F 45 °F 69% 29.94 in 12 mi SW 15.0 mph - - Rain Light Rain
10:00 PM 51.8 °F 44.6 °F 76% 29.94 in 12.0 mi WSW 13.8 mph 23.0 mph N/A Rain Light Rain
10:29 PM 51.8 °F - N/A% - 15.0 mi WSW 8.1 mph - N/A   Mostly Cloudy
11:00 PM 51.8 °F 42.8 °F 71% 29.96 in 15.0 mi SW 8.1 mph - N/A   Mostly Cloudy